Date,TemperatureHighF,TemperatureAvgF,TemperatureLowF,DewpointHighF,DewpointAvgF,DewpointLowF,HumidityHigh,HumidityAvg,HumidityLow,PressureMaxIn,PressureMinIn,WindSpeedMaxMPH,WindSpeedAvgMPH,GustSpeedMaxMPH,PrecipitationSumIn
2013-1-1,18,13,6,16,10,3,91,90,88,0.00,40.00,2,1,7,0.01
2013-1-2,25,10,4,22,-3,-100,88,77,73,0.00,40.00,2,-92,4,0.00
2013-1-3,18,9,6,8,-6,-100,86,73,69,0.00,40.00,3,-102,4,0.00
2013-1-4,24,13,7,8,0,-100,81,65,42,0.00,40.00,3,-40,4,0.00
2013-1-5,35,22,9,12,5,1,81,51,26,0.00,40.00,3,2,4,0.01
2013-1-6,39,29,25,8,-8,-100,41,28,16,0.00,40.00,3,-87,4,0.00
2013-1-7,38,31,25,12,3,-10,52,31,17,0.00,40.00,3,2,5,0.00
2013-1-8,38,31,24,11,0,-100,51,31,16,0.00,40.00,3,-40,6,0.00
2013-1-9,40,33,28,11,7,2,42,33,27,0.00,40.00,4,2,10,0.00
2013-1-10,38,33,28,11,2,-8,45,28,16,0.00,40.00,3,2,6,0.00
2013-1-11,32,17,0,19,2,-100,92,63,46,0.00,40.00,4,-41,13,0.00
2013-1-12,14,4,-3,-3,-7,-11,81,61,33,0.00,40.00,2,1,8,0.00
2013-1-13,14,4,-3,-2,-9,-100,83,63,47,0.00,40.00,2,-42,7,0.00
2013-1-14,13,8,4,9,-2,-100,89,76,66,0.00,40.00,1,-52,8,0.01
2013-1-15,9,4,-3,4,-14,-100,86,71,69,0.00,40.00,1,-129,4,0.01
2013-1-24,44,38,33,22,7,-100,63,43,33,0.00,40.00,3,-98,11,0.00
2013-1-25,43,37,32,34,25,-100,94,78,63,0.00,40.00,2,-42,6,0.00
2013-1-26,45,37,33,39,6,-100,99,72,74,0.00,40.00,2,-207,9,0.01
2013-1-27,36,34,32,36,33,31,100,97,95,0.00,40.00,3,2,8,0.01
2013-1-28,35,31,23,32,12,-100,98,78,77,0.00,40.00,3,-129,10,0.02
2013-1-29,22,16,11,21,10,-100,95,88,89,0.00,40.00,2,-41,7,0.03
2013-1-30,20,11,1,18,4,-100,93,85,84,0.00,40.00,2,-46,7,0.01
2013-1-31,33,24,19,29,22,17,95,91,83,0.00,40.00,2,1,5,0.01
2013-2-1,39,26,18,23,14,-100,92,75,47,0.00,40.00,2,-42,5,0.00
2013-2-2,41,29,21,21,14,4,94,60,24,0.00,40.00,3,2,4,0.00
2013-2-3,42,32,27,21,2,-100,70,41,14,0.00,40.00,4,-83,6,0.00
2013-2-4,42,30,23,21,10,-100,86,55,25,0.00,40.00,3,-43,6,0.00
2013-2-5,45,33,26,17,9,-100,64,44,27,0.00,40.00,3,-42,6,0.00
2013-2-6,42,34,29,23,12,-100,73,50,36,0.00,40.00,2,-42,8,0.00
2013-2-7,38,30,24,24,15,-100,88,67,42,0.00,40.00,2,-42,5,0.00
2013-2-8,41,31,23,23,8,-100,85,57,36,0.00,40.00,2,-84,10,0.00
2013-2-9,34,26,16,21,10,-4,94,59,21,0.00,40.00,3,2,11,0.01
2013-2-10,22,17,13,20,10,-100,93,87,90,0.00,40.00,3,-45,8,0.01
2013-2-11,27,18,13,17,8,-100,93,75,40,0.00,40.00,2,-42,8,0.01
2013-2-12,23,15,11,13,9,5,92,78,50,0.00,40.00,2,1,6,0.01
2013-2-13,34,21,10,15,3,-100,88,60,38,0.00,40.00,2,-62,5,0.01
2013-2-14,34,25,20,16,3,-100,75,52,43,0.00,40.00,3,-85,6,0.00
2013-2-15,30,23,18,23,7,-100,97,64,33,0.00,40.00,3,-41,8,0.00
2013-2-16,40,28,18,9,5,1,51,38,23,0.00,40.00,2,2,8,0.00
2013-2-17,43,32,23,11,0,-11,56,29,10,0.00,40.00,3,2,7,0.00
2013-2-18,33,25,17,12,-1,-100,73,40,22,0.00,40.00,3,-42,8,0.00
2013-2-19,42,30,19,19,-9,-100,74,29,11,0.00,40.00,3,-83,10,0.00
2013-2-20,34,26,19,29,11,-100,96,77,64,0.00,40.00,2,-96,9,0.02
2013-2-21,24,21,17,23,19,15,95,94,92,0.00,40.00,3,2,7,0.01
2013-2-22,26,20,15,24,8,-100,95,85,87,0.00,40.00,2,-86,6,0.02
2013-2-23,32,16,9,20,8,-100,92,84,62,0.00,40.00,1,-36,5,0.01
2013-2-24,27,21,16,19,-45,-100,93,39,69,0.00,40.00,2,-528,9,0.01
2013-2-25,28,21,8,11,-28,-100,70,37,39,0.00,40.00,2,-332,5,0.00
2013-2-26,28,19,15,14,7,-3,92,62,31,0.00,40.00,4,2,11,0.01
2013-2-27,29,17,7,14,6,-3,92,66,26,0.00,40.00,2,1,9,0.01
2013-2-28,33,21,10,8,2,-7,70,47,18,0.00,40.00,2,2,9,0.00
2013-3-1,37,27,15,17,8,-100,76,54,39,0.00,40.00,3,-43,7,0.00
2013-3-2,49,36,25,22,17,13,69,48,27,0.00,40.00,2,1,6,0.00
2013-3-3,49,38,32,21,16,8,63,42,22,0.00,40.00,4,2,11,0.00
2013-3-4,40,35,28,25,10,-100,72,52,47,0.00,40.00,3,-87,10,0.00
2013-3-5,46,34,25,20,6,-6,75,36,12,0.00,40.00,3,2,7,0.00
2013-3-6,48,38,30,21,12,-100,60,43,32,0.00,40.00,3,-42,10,0.00
2013-3-7,53,40,31,22,8,-100,57,35,13,0.00,40.00,3,-40,10,0.00
2013-3-8,48,37,31,32,20,13,95,54,24,0.00,40.00,3,2,8,0.00
2013-3-9,29,23,19,28,21,17,98,94,88,0.00,40.00,3,2,10,0.03
2013-3-10,29,23,19,25,14,-100,95,82,67,0.00,40.00,2,-41,7,0.03
2013-3-11,42,29,20,23,15,-100,93,68,37,0.00,40.00,2,-35,7,0.00
2013-3-12,47,35,25,25,8,-100,86,53,31,0.00,40.00,2,-102,8,0.00
2013-3-13,50,39,32,27,7,-100,74,44,27,0.00,40.00,2,-114,8,0.00
2013-3-14,54,43,35,19,11,-100,52,32,18,0.00,40.00,3,-35,7,0.00
2013-3-15,58,46,36,17,10,-100,42,27,15,0.00,40.00,3,-33,8,0.00
2013-3-16,51,44,35,34,16,-100,97,40,23,0.00,40.00,2,-37,8,0.00
2013-3-17,45,36,30,34,14,-100,99,61,22,0.00,40.00,4,-78,11,0.01
2013-3-18,45,36,27,16,2,-100,50,30,21,0.00,40.00,4,-60,9,0.00
2013-3-19,40,35,29,18,4,-100,58,34,23,0.00,40.00,2,-58,6,0.00
2013-3-20,46,37,27,20,13,-100,66,44,31,0.00,40.00,3,-34,9,0.00
2013-3-21,47,41,34,31,3,-100,75,39,22,0.00,40.00,5,-126,13,0.01
2013-3-22,43,36,30,16,0,-100,48,31,25,0.00,40.00,3,-98,9,0.00
2013-3-23,33,23,10,20,-9,-100,91,44,24,0.00,40.00,5,-123,12,0.00
2013-3-24,32,19,6,7,-6,-100,88,48,25,0.00,40.00,4,-78,10,0.01
2013-3-25,36,24,10,11,-11,-100,84,40,18,0.00,40.00,2,-128,7,0.00
2013-3-26,47,36,23,14,3,-100,58,34,25,0.00,40.00,3,-72,10,0.01
2013-3-27,51,41,33,18,-7,-100,47,26,18,0.00,40.00,3,-155,10,0.00
2013-3-28,52,42,34,16,-2,-100,41,25,18,0.00,40.00,3,-114,8,0.00
2013-3-29,52,42,36,25,10,-100,58,34,24,0.00,40.00,3,-67,7,0.00
2013-3-30,53,44,35,26,6,-100,65,37,22,0.00,40.00,2,-72,8,0.00
2013-3-31,53,43,34,30,13,-100,73,44,31,0.00,40.00,3,-78,10,0.00
2013-4-1,54,46,37,29,16,8,63,33,17,0.00,40.00,3,2,8,0.00
2013-4-2,50,39,33,28,17,0,71,44,12,0.00,40.00,2,2,10,0.00
2013-4-3,42,34,27,31,11,-100,93,62,48,0.00,40.00,2,-119,8,0.00
2013-4-4,54,41,31,25,10,-100,78,41,19,0.00,40.00,2,-72,6,0.00
2013-4-5,56,47,39,18,-1,-100,35,23,18,0.00,40.00,3,-123,11,0.00
2013-4-6,56,45,37,25,2,-100,54,33,26,0.00,40.00,3,-153,8,0.00
2013-4-7,53,44,37,27,5,-100,62,34,22,0.00,40.00,3,-118,8,0.00
2013-4-8,56,46,36,27,-5,-100,62,31,19,0.00,40.00,3,-207,11,0.00
2013-4-9,41,32,23,31,-2,-100,96,60,39,0.00,40.00,3,-198,11,0.01
2013-4-10,31,28,24,29,21,-100,98,87,74,0.00,40.00,2,-30,7,0.01
2013-4-11,45,32,20,33,16,-100,99,72,36,0.00,40.00,3,-58,8,0.01
2013-4-12,49,38,31,33,20,-100,98,62,31,0.00,40.00,2,-39,8,0.01
2013-4-13,53,44,34,25,11,-100,57,33,24,0.00,40.00,3,-45,11,0.00
2013-4-14,50,44,37,26,12,-100,52,39,31,0.00,40.00,5,-77,14,0.00
2013-4-15,56,46,38,23,4,-100,52,30,20,0.00,40.00,3,-118,12,0.00
2013-4-16,59,48,39,21,10,-100,42,26,17,0.00,40.00,3,-34,13,0.00
2013-4-17,47,36,23,29,6,-100,96,50,17,0.00,40.00,3,-114,9,0.01
2013-4-18,26,19,13,21,6,-100,91,79,73,0.00,40.00,1,-79,5,0.01
2013-4-19,42,28,13,13,1,-100,85,44,26,0.00,40.00,3,-79,8,0.01
2013-4-20,47,38,31,25,8,-100,65,41,32,0.00,40.00,3,-79,9,0.00
2013-4-21,53,40,30,25,7,-100,72,38,16,0.00,40.00,3,-78,10,0.00
2013-4-22,58,48,36,20,-2,-100,46,24,16,0.00,40.00,4,-152,11,0.00
2013-4-23,50,41,33,33,12,-100,95,49,24,0.00,40.00,3,-93,10,0.01
2013-4-24,50,45,38,17,5,2,42,20,14,0.00,40.00,3,2,10,0.00
2013-4-25,54,43,33,36,15,-100,97,49,33,0.00,40.00,3,-87,9,0.00
2013-4-26,53,41,35,39,20,-100,100,64,33,0.00,40.00,3,-82,9,0.01
2013-4-27,54,44,35,31,7,-100,65,36,22,0.00,40.00,3,-109,8,0.00
2013-4-28,61,49,39,17,-6,-100,35,19,12,0.00,40.00,3,-152,9,0.00
2013-4-29,64,54,41,19,9,-100,31,19,15,0.00,40.00,3,-38,9,0.00
2013-4-30,65,54,45,22,-6,-100,31,17,14,0.00,40.00,3,-183,12,0.00
2013-5-1,59,48,36,27,11,-100,67,32,21,0.00,40.00,4,-65,12,0.01
2013-5-2,43,34,23,20,10,-3,86,42,15,0.00,40.00,3,1,10,0.00
2013-5-3,53,41,25,17,6,-100,60,29,13,0.00,40.00,3,-22,9,0.00
2013-5-4,57,43,31,16,3,-100,42,25,14,0.00,40.00,4,-72,10,0.00
2013-5-5,53,44,32,27,9,-100,53,34,27,0.00,40.00,4,-78,14,0.00
2013-5-6,45,40,37,40,2,-100,89,54,40,0.00,40.00,2,-221,9,0.01
2013-5-7,58,44,34,37,12,-100,96,53,26,0.00,40.00,2,-129,8,0.01
2013-5-8,52,43,35,38,15,-100,93,44,24,0.00,40.00,3,-57,9,0.00
2013-5-9,51,40,33,31,19,-100,76,53,30,0.00,40.00,3,-42,8,0.00
2013-5-10,47,40,34,40,21,-100,89,67,53,0.00,40.00,3,-82,10,0.00
2013-5-11,51,41,34,34,14,-100,91,56,36,0.00,40.00,3,-78,12,0.00
2013-5-12,60,47,35,35,19,-100,83,48,26,0.00,40.00,3,-78,11,0.00
2013-5-13,64,51,42,42,24,-100,59,42,25,0.00,40.00,3,-38,7,0.00
2013-5-14,64,52,45,38,9,-100,72,37,23,0.00,40.00,3,-155,6,0.00
2013-5-15,61,50,42,44,33,-100,86,61,38,0.00,40.00,2,-31,9,0.00
2013-5-16,65,54,43,36,8,-100,66,29,15,0.00,40.00,3,-55,11,0.00
2013-5-17,66,56,43,21,2,-100,33,18,12,0.00,40.00,3,-70,10,0.00
2013-5-18,60,50,43,26,16,-100,39,29,23,0.00,40.00,3,-35,11,0.00
2013-5-19,54,46,40,33,19,-100,66,43,20,0.00,40.00,4,-38,12,0.00
2013-5-20,52,42,34,37,10,-100,91,53,30,0.00,40.00,2,-146,8,0.00
2013-5-21,59,47,35,31,14,-100,86,40,20,0.00,40.00,3,-50,10,0.00
2013-5-22,66,55,43,26,8,-100,39,22,14,0.00,40.00,3,-80,8,0.00
2013-5-23,71,58,47,41,16,-100,68,25,11,0.00,40.00,3,-38,11,0.00
2013-5-24,68,57,45,45,22,-100,88,45,13,0.00,40.00,3,-79,10,0.00
2013-5-25,70,58,46,40,13,-100,74,29,12,0.00,40.00,3,-81,10,0.00
2013-5-26,68,57,46,26,9,-100,39,18,11,0.00,40.00,3,-40,8,0.00
2013-5-27,62,53,44,15,6,-100,24,17,13,0.00,40.00,3,-36,9,0.01
2013-5-28,67,54,43,21,6,-100,29,18,9,0.00,40.00,3,-39,9,0.00
2013-5-29,59,51,42,35,17,-100,64,32,17,0.00,40.00,4,-36,10,0.00
2013-5-30,63,51,41,28,8,-100,44,26,14,0.00,40.00,4,-76,12,0.00
2013-5-31,64,54,46,29,5,-100,46,22,13,0.00,40.00,4,-102,12,0.00
2013-6-1,66,53,40,25,9,-100,37,21,8,0.00,40.00,3,2,7,0.00
2013-6-2,69,56,42,33,22,-100,55,34,17,0.00,40.00,3,-41,10,0.00
2013-6-3,72,58,48,45,26,-100,72,38,19,0.00,40.00,3,-39,8,0.00
2013-6-4,72,61,51,30,16,-100,34,22,14,0.00,40.00,3,-38,7,0.00
2013-6-5,67,56,47,42,26,-100,59,38,25,0.00,40.00,3,-39,9,0.00
2013-6-6,70,56,46,40,18,-100,67,38,19,0.00,40.00,3,-105,7,0.00
2013-6-7,66,53,45,49,29,-100,93,54,23,0.00,40.00,3,-51,6,0.01
2013-6-8,73,57,46,41,30,-100,64,45,21,0.00,40.00,3,-39,9,0.01
2013-6-9,74,61,48,48,20,-100,75,41,12,0.00,40.00,4,-123,7,0.00
2013-6-10,79,66,55,46,27,-100,64,32,13,0.00,40.00,3,-39,7,0.00
2013-6-11,79,67,56,29,6,-100,29,15,9,0.00,40.00,3,-116,10,0.00
2013-6-12,77,70,58,32,15,-100,28,16,12,0.00,40.00,3,-58,6,0.00
2013-6-13,70,61,47,44,27,-100,89,36,23,0.00,40.00,2,-42,9,0.01
2013-6-14,65,56,48,48,29,-100,90,54,42,0.00,40.00,3,-86,6,0.60
2013-6-15,72,60,49,45,26,-100,70,38,15,0.00,40.00,2,-40,7,0.60
2013-6-16,71,59,50,39,9,-100,55,30,21,0.00,40.00,2,-166,6,0.00
2013-6-17,69,61,51,41,25,-100,65,33,21,0.00,40.00,3,-50,6,0.00
2013-6-18,69,58,47,49,28,-100,88,50,21,0.00,40.00,3,-74,7,0.00
2013-6-19,73,62,51,42,12,-100,69,26,8,0.00,40.00,3,-80,8,0.00
2013-6-20,71,57,50,46,15,-100,83,33,10,0.00,40.00,3,-81,7,0.00
2013-6-22,70,64,54,24,14,6,31,14,11,0.00,40.00,2,2,9,0.00
2013-6-23,72,64,51,20,13,5,23,14,8,0.00,40.00,2,2,7,0.00
2013-6-24,71,61,50,21,8,-100,24,14,10,0.00,40.00,2,-33,8,0.00
2013-6-25,72,60,47,25,12,-100,28,18,12,0.00,40.00,3,-34,7,0.00
2013-6-26,81,67,53,35,6,-100,38,18,12,0.00,40.00,2,-152,5,0.00
2013-6-27,77,70,59,34,27,23,31,20,15,0.00,40.00,2,2,11,0.01
2013-6-28,74,60,55,51,26,-100,74,46,22,0.00,40.00,4,-102,10,0.02
2013-6-29,76,61,53,52,33,-100,73,43,25,0.00,40.00,2,-42,5,0.01
2013-6-30,74,60,47,48,39,31,94,50,23,0.00,40.00,3,2,8,0.02
2013-7-1,64,53,45,53,33,-100,98,70,43,0.00,40.00,3,-84,8,0.04
2013-7-2,67,53,45,49,36,-100,96,71,31,0.00,40.00,2,-54,5,0.00
2013-7-3,66,54,44,49,32,-100,97,61,32,0.00,40.00,2,-65,7,0.01
2013-7-4,69,59,48,45,32,-100,72,46,27,0.00,40.00,2,-46,6,0.00
2013-7-5,74,60,50,49,23,-100,94,48,27,0.00,40.00,3,-134,5,0.00
2013-7-6,67,56,49,52,31,-100,91,67,46,0.00,40.00,2,-106,4,0.01
2013-7-7,71,60,52,51,43,-100,79,59,44,0.00,40.00,2,-23,6,0.00
2013-7-8,75,60,54,53,24,-100,79,54,32,0.00,40.00,2,-155,5,0.00
2013-7-9,69,61,54,51,29,-100,75,50,39,0.00,40.00,3,-107,6,0.01
2013-7-10,70,59,55,49,22,-100,63,44,34,0.00,40.00,2,-120,5,0.00
2013-7-11,67,59,52,57,41,-100,91,65,46,0.00,40.00,2,-50,5,0.01
2013-7-12,71,60,51,52,42,-100,84,60,37,0.00,40.00,2,-29,7,0.01
2013-7-13,70,61,53,57,6,-100,89,46,38,0.00,40.00,3,-280,4,0.01
2013-7-14,73,60,52,51,27,-100,91,57,37,0.00,40.00,3,-137,6,0.01
2013-7-15,58,52,48,53,16,-100,98,68,63,0.00,40.00,2,-213,6,0.01
2013-7-16,60,50,43,47,34,-100,94,72,57,0.00,40.00,2,-64,5,0.00
2013-7-17,63,53,44,47,30,-100,90,63,48,0.00,40.00,2,-87,6,0.00
2013-7-18,65,58,46,50,27,-100,94,58,48,0.00,40.00,2,-127,5,0.00
2013-7-19,64,54,48,52,34,-100,97,73,52,0.00,40.00,4,-94,9,0.03
2013-7-20,71,56,48,52,33,-100,97,64,41,0.00,40.00,3,-87,9,0.02
2013-7-21,71,58,52,50,26,-100,86,54,34,0.00,40.00,2,-132,7,0.00
2013-7-22,74,62,51,48,28,-100,67,39,21,0.00,40.00,2,-63,7,0.00
2013-7-23,71,62,56,48,29,-100,52,39,36,0.00,40.00,2,-74,8,0.00
2013-7-24,71,62,51,48,29,-100,89,46,32,0.00,40.00,2,-92,8,0.00
2013-7-25,69,58,47,52,31,-100,93,59,36,0.00,40.00,2,-104,8,0.00
2013-7-26,69,56,48,53,40,-100,96,69,40,0.00,40.00,3,-50,6,0.01
2013-7-27,69,57,47,48,31,-100,87,57,40,0.00,40.00,2,-87,6,0.00
2013-7-28,64,56,50,52,44,-100,91,74,53,0.00,40.00,2,-31,5,0.00
2013-7-29,69,57,47,52,32,-100,98,64,32,0.00,40.00,3,-92,8,0.00
2013-7-30,72,62,51,46,25,-100,74,37,24,0.00,40.00,2,-89,7,0.00
2013-7-31,75,65,54,49,20,-100,72,32,17,0.00,40.00,3,-113,7,0.00
2013-8-1,66,59,52,54,41,-100,90,65,52,0.00,40.00,2,-42,6,0.01
2013-8-2,71,60,50,54,36,-100,92,64,41,0.00,40.00,2,-78,6,0.01
2013-8-3,71,58,49,53,37,-100,97,62,37,0.00,40.00,3,-65,5,0.01
2013-8-4,70,60,50,55,34,-100,98,60,34,0.00,40.00,3,-92,8,0.02
2013-8-5,72,59,51,48,10,-100,87,44,32,0.00,40.00,2,-230,6,0.00
2013-8-6,71,59,49,50,39,-100,97,57,31,0.00,40.00,2,-26,6,0.01
2013-8-7,61,53,47,56,41,-100,97,81,59,0.00,40.00,3,-49,4,0.03
2013-8-8,60,52,46,50,43,-100,98,81,61,0.00,40.00,2,-25,5,0.01
2013-8-9,65,54,45,46,20,-100,92,55,33,0.00,40.00,2,-151,7,0.00
2013-8-10,64,52,44,47,35,-100,98,71,48,0.00,40.00,3,-62,5,0.04
2013-8-11,64,53,43,49,29,-100,98,66,39,0.00,40.00,3,-94,7,0.05
2013-8-12,64,55,49,53,19,-100,86,59,56,0.00,40.00,2,-191,5,0.00
2013-8-13,69,56,48,50,7,-100,96,48,30,0.00,40.00,3,-248,6,0.00
2013-8-14,66,56,47,49,13,-100,90,50,31,0.00,40.00,3,-198,7,0.00
2013-8-15,71,57,50,45,16,-100,74,39,20,0.00,40.00,3,-106,6,0.00
2013-8-16,73,61,53,44,8,-100,57,30,18,0.00,40.00,2,-147,5,0.00
2013-8-17,72,61,55,44,-17,-100,57,24,20,0.00,40.00,2,-356,5,0.00
2013-8-18,73,60,51,49,28,-100,88,48,25,0.00,40.00,3,-90,6,0.01
2013-8-19,70,54,51,47,34,-100,77,59,35,0.00,40.00,2,2,5,0.01
2013-8-20,71,60,50,49,22,-100,81,50,34,0.00,40.00,2,-153,5,0.00
2013-8-21,69,56,51,52,47,36,96,73,37,0.00,40.00,3,2,4,0.01
2013-8-22,70,61,52,50,44,39,79,56,36,0.00,40.00,2,1,5,0.01
2013-8-23,72,60,50,43,37,32,59,43,27,0.00,40.00,2,1,6,0.00
2013-8-24,63,54,49,52,41,-100,91,68,52,0.00,40.00,2,1,4,0.01
2013-8-25,63,55,49,54,50,45,97,85,64,0.00,40.00,2,1,4,0.01
2013-8-26,66,56,48,51,37,-100,95,69,48,0.00,40.00,2,-66,4,0.01
2013-8-27,70,58,50,51,46,42,80,67,42,0.00,40.00,2,1,7,0.00
2013-8-28,71,61,53,51,44,40,93,56,36,0.00,40.00,3,2,5,0.00
2013-8-29,71,58,51,55,22,-100,80,55,38,0.00,40.00,2,-165,4,0.01
2013-8-30,75,64,52,50,34,-100,77,48,24,0.00,40.00,2,-63,7,0.00
2013-8-31,73,60,54,47,37,-100,63,48,34,0.00,40.00,2,2,5,0.00
2013-9-1,71,59,53,54,45,36,87,61,38,0.00,40.00,2,1,6,0.00
2013-9-2,65,55,50,54,48,44,94,78,48,0.00,40.00,3,2,5,0.01
2013-9-3,70,56,50,53,26,-100,90,65,50,0.00,40.00,2,-141,5,0.01
2013-9-4,72,63,52,48,40,32,76,46,26,0.00,40.00,2,1,7,0.00
2013-9-5,73,64,52,42,33,27,56,35,20,0.00,40.00,2,1,8,0.00
2013-9-6,72,62,52,39,33,30,53,35,25,0.00,40.00,2,1,6,0.00
2013-9-7,70,59,52,47,35,-100,71,44,34,0.00,40.00,2,1,5,0.00
2013-9-8,69,60,51,43,22,-100,62,43,36,0.00,40.00,2,-124,5,0.00
2013-9-9,64,56,48,48,43,39,82,64,46,0.00,40.00,2,1,4,0.00
2013-9-10,59,52,46,51,44,40,86,74,61,0.00,40.00,2,1,5,0.00
2013-9-11,58,53,49,55,30,-100,98,80,84,0.00,40.00,2,-142,4,0.02
2013-9-12,53,50,46,51,49,45,98,95,90,0.00,40.00,2,1,3,0.01
2013-9-13,51,48,46,49,39,-100,98,91,93,0.00,40.00,1,-55,4,0.05
2013-9-14,54,46,44,50,42,-100,98,93,82,0.00,40.00,2,1,6,0.01
2013-9-15,58,48,43,49,35,-100,98,84,72,0.00,40.00,2,-61,4,0.02
2013-9-16,56,48,43,50,46,43,98,91,70,0.00,40.00,3,1,4,0.02
2013-9-17,60,52,46,51,46,42,97,81,56,0.00,40.00,2,1,5,0.00
2013-9-18,50,49,47,48,45,41,93,86,77,0.00,40.00,2,1,3,0.01
2013-9-19,61,52,45,52,15,-100,98,61,40,0.00,40.00,3,-189,5,0.01
2013-9-20,62,53,42,43,37,30,87,61,32,0.00,40.00,3,2,7,0.00
2013-9-21,62,51,45,48,38,-100,96,70,35,0.00,40.00,2,1,5,0.00
2013-9-22,64,50,36,43,31,-100,97,65,24,0.00,40.00,2,-50,7,0.04
2013-9-23,50,40,33,38,34,31,93,80,53,0.00,40.00,3,2,7,0.04
2013-9-24,60,48,38,31,18,-100,75,42,21,0.00,40.00,3,-51,4,0.00
2013-9-25,61,54,43,34,28,13,54,38,28,0.00,40.00,2,2,7,0.00
2013-9-26,59,53,48,33,4,-100,49,33,27,0.00,40.00,2,-186,6,0.00
2013-9-27,54,44,31,41,26,-100,99,67,49,0.00,40.00,2,-62,6,0.02
2013-9-28,50,33,26,29,20,-100,92,69,36,0.00,40.00,3,1,4,0.01
2013-9-29,56,45,36,25,21,17,62,40,24,0.00,40.00,3,2,6,0.00
2013-9-30,61,51,42,26,-2,-100,41,27,25,0.00,40.00,2,-199,4,0.00
2013-10-2,60,51,42,27,20,13,47,30,16,0.00,40.00,2,2,5,0.00
2013-10-3,56,49,40,32,23,14,60,38,21,0.00,40.00,2,2,7,0.00
2013-10-4,47,40,32,25,-13,-100,69,28,16,0.00,40.00,3,-234,8,0.00
2013-10-5,42,34,23,17,14,12,68,47,30,0.00,40.00,2,1,5,0.00
2013-10-6,55,43,31,18,-5,-100,57,23,15,0.00,40.00,3,-132,5,0.00
2013-10-7,57,49,40,19,16,10,32,26,20,0.00,40.00,3,2,4,0.00
2013-10-8,57,48,40,27,11,-100,46,33,26,0.00,40.00,2,-82,5,0.00
2013-10-9,56,47,39,30,12,-100,60,40,31,0.00,40.00,2,-110,5,0.00
2013-10-10,52,45,34,36,10,-100,89,51,38,0.00,40.00,3,-156,9,0.01
2013-10-11,39,32,26,35,29,25,97,90,81,0.00,40.00,2,1,5,0.02
2013-10-12,47,39,30,33,24,-100,94,63,41,0.00,40.00,2,1,5,0.00
2013-10-13,55,47,38,40,35,27,80,64,34,0.00,40.00,2,1,7,0.00
2013-10-21,38,35,34,30,24,21,74,64,58,0.00,40.00,2,1,3,0.00
2013-10-22,49,40,33,20,16,13,58,39,26,0.00,40.00,3,2,5,0.00
2013-10-23,46,40,37,18,15,11,45,37,24,0.00,40.00,3,3,3,0.00
2013-10-24,53,49,45,22,18,14,40,29,23,0.00,40.00,2,1,5,0.00
2013-10-25,40,37,36,37,36,35,98,97,91,0.00,40.00,1,1,5,0.01
2013-10-26,43,38,33,33,9,-100,99,63,55,0.00,40.00,1,-166,5,0.01
2013-10-27,44,40,37,33,32,30,74,70,65,0.00,40.00,2,2,3,0.00
2013-11-12,46,39,32,27,3,-100,71,43,34,0.00,40.00,2,-147,5,0.00
2013-11-13,41,38,31,24,-19,-100,73,38,40,0.00,40.00,2,-332,3,0.00
2013-11-14,42,35,31,29,24,23,79,68,48,0.00,40.00,2,1,4,0.00
2013-11-15,37,35,33,31,29,27,91,77,66,0.00,40.00,1,1,6,0.00
2013-11-16,33,28,32,32,12,-100,99,79,79,0.00,40.00,3,2,9,0.01
2013-11-17,38,35,32,27,26,26,83,72,62,0.00,40.00,2,2,6,0.00
2013-11-18,40,32,28,24,19,13,72,59,44,0.00,40.00,2,2,3,0.00
2013-11-19,43,37,30,30,17,-100,78,63,57,0.00,40.00,2,-76,7,0.00
2013-11-20,34,32,30,31,11,-100,99,73,70,0.00,40.00,2,-124,3,0.00
2013-11-21,37,35,32,34,18,-100,99,82,86,0.00,40.00,1,-111,3,0.00
2013-11-22,30,28,26,29,26,25,97,95,91,0.00,40.00,2,1,4,0.02
2013-11-23,29,25,24,24,18,-100,93,82,76,0.00,40.00,4,3,10,0.00
2013-11-24,25,20,18,21,9,-100,95,85,84,0.00,40.00,3,-82,10,0.01
2013-11-25,26,19,17,24,18,15,94,93,92,0.00,40.00,1,1,3,0.00
2013-11-26,29,23,19,23,19,16,94,87,75,0.00,40.00,2,1,3,0.01
2013-11-27,32,28,21,26,24,19,94,86,74,0.00,40.00,2,1,3,0.00
2013-11-28,43,37,31,17,12,7,54,37,22,0.00,40.00,3,2,7,0.00
2013-11-29,37,30,25,22,20,18,78,67,52,0.00,40.00,2,1,5,0.00
2013-11-30,38,30,29,25,2,-100,77,52,33,0.00,40.00,2,-94,5,0.00
2013-12-1,35,31,27,24,22,17,81,69,55,0.00,40.00,1,1,5,0.00
2013-12-2,39,36,30,21,18,16,59,50,40,0.00,40.00,2,2,6,0.00
2013-12-3,40,38,36,17,14,11,44,38,30,0.00,40.00,2,2,9,0.00
2013-12-4,35,33,24,22,18,14,93,56,43,0.00,40.00,3,2,11,0.00
2013-12-5,22,19,13,21,17,10,95,92,89,0.00,40.00,1,1,5,0.01
2013-12-6,16,11,9,10,8,6,91,87,73,0.00,40.00,1,1,5,0.01
2013-12-7,24,16,11,18,6,-100,91,76,69,0.00,40.00,2,1,8,0.01
2013-12-8,18,11,7,15,7,1,90,85,78,0.00,40.00,3,2,11,0.00
2013-12-11,30,25,17,10,6,3,66,46,32,0.00,40.00,3,1,4,0.00
2013-12-12,30,27,23,5,1,-4,45,34,24,0.00,40.00,3,2,4,0.00
2013-12-13,30,27,21,27,24,19,98,88,69,0.00,40.00,2,1,5,0.00
2013-12-14,24,18,16,15,-1,-100,85,60,49,0.00,40.00,1,1,3,0.00
2013-12-15,32,29,24,15,13,11,56,50,46,0.00,40.00,1,1,4,0.00
2013-12-16,42,35,31,14,12,10,43,38,30,0.00,40.00,2,2,5,0.00
2013-12-17,45,45,45,1,1,1,15,15,15,0.00,40.00,0,0,3,0.00
2013-12-18,44,36,33,9,4,0,36,27,16,0.00,40.00,2,2,6,0.00
2013-12-19,38,32,27,20,6,-100,69,50,33,0.00,40.00,2,-82,5,0.00
2013-12-22,23,19,15,18,15,12,94,83,72,0.00,40.00,1,1,5,0.00
2013-12-23,28,17,11,10,8,3,90,70,33,0.00,40.00,2,2,5,0.01
2013-12-24,34,27,21,21,5,-100,86,58,55,0.00,40.00,2,-99,6,0.01
2013-12-25,29,24,18,-1,-4,-5,41,29,22,0.00,40.00,2,1,3,0.00
2013-12-26,34,30,21,4,1,-2,35,29,23,0.00,40.00,2,1,5,0.00
2013-12-27,38,34,27,7,5,3,35,30,27,0.00,40.00,2,1,4,0.00
2013-12-28,35,26,24,13,2,-100,60,45,37,0.00,40.00,2,1,4,0.00
2013-12-29,24,23,22,22,19,16,94,85,70,0.00,40.00,1,1,3,0.00
2013-12-30,33,27,19,16,14,12,82,60,42,0.00,40.00,2,1,4,0.02
2013-12-31,33,27,21,17,15,12,69,62,51,0.00,40.00,2,1,5,0.00
2014-1-1,32,26,23,18,16,15,76,65,51,0.00,40.00,3,2,7,0.00
2014-1-2,37,27,21,15,5,-2,70,42,18,0.00,40.00,2,1,4,0.00